Date,TemperatureHighF,TemperatureAvgF,TemperatureLowF,DewpointHighF,DewpointAvgF,DewpointLowF,HumidityHigh,HumidityAvg,HumidityLow,PressureMaxIn,PressureMinIn,WindSpeedMaxMPH,WindSpeedAvgMPH,GustSpeedMaxMPH,PrecipitationSumIn
2013-2-1,2.2,-4.4,-13.9,-0.8,-9.2,-18.3,87,79,70,30.21,30.07,9,2,14,0.00
2013-2-2,13.3,1.5,-10.7,7.4,-2.9,-14.7,92,81,72,30.17,29.96,6,1,8,0.00
2013-2-3,6.7,4.7,2.5,3.2,0.7,-2.0,92,83,78,30.01,29.89,11,4,17,0.00
2013-2-4,12.7,1.1,-13.1,3.0,-4.9,-17.3,88,76,57,30.04,29.83,6,1,9,0.00
2013-2-5,31.9,10.2,6.2,31.1,6.9,-0.9,97,86,72,29.84,29.65,9,4,16,0.02
2013-2-6,20.7,18.2,7.8,17.2,13.4,-1.0,92,82,48,30.07,29.97,6,2,9,0.00
2013-2-7,22.6,19.4,16.2,20.1,17.1,13.3,92,90,87,30.28,30.07,7,2,11,0.00
2013-2-8,23.9,15.7,8.1,14.6,10.8,4.3,90,81,66,30.39,30.28,7,1,12,0.07
2013-2-9,29.8,19.7,14.5,20.4,14.7,8.6,93,81,66,30.30,30.05,19,6,26,0.00
2013-2-10,31.6,26.2,19.8,30.9,24.6,18.1,100,94,91,30.05,29.28,18,4,21,0.00
2013-2-11,31.0,24.9,19.1,29.7,23.5,17.4,97,95,92,29.89,29.24,13,4,17,0.00
2013-2-12,24.1,20.2,17.2,20.9,17.8,14.8,93,90,84,29.93,29.70,10,3,20,0.00
2013-2-13,39.6,28.3,21.1,28.1,23.5,18.5,92,83,60,29.70,29.58,8,2,10,0.11
2013-2-14,27.2,21.5,16.5,24.1,17.7,9.2,92,85,71,30.03,29.62,11,3,16,0.00
2013-2-15,16.9,11.3,7.6,12.4,7.4,2.2,90,84,69,30.19,30.03,12,4,18,0.00
2013-2-16,14.0,4.9,-13.4,8.8,0.8,-17.5,92,83,76,30.19,30.14,7,2,10,0.00
2013-2-17,23.5,6.5,-16.8,11.4,-1.6,-21.1,89,70,52,30.20,29.82,23,5,27,0.03
2013-2-18,32.5,25.7,19.1,26.2,20.8,11.3,95,82,71,29.82,29.47,20,5,26,0.00
2013-2-19,22.9,8.9,4.9,21.2,6.3,1.9,93,89,87,30.21,29.52,21,8,23,0.00
2013-2-20,13.2,7.1,-7.4,10.6,4.3,-11.2,90,88,83,30.49,30.21,10,2,14,0.00
2013-2-21,22.6,12.9,-6.0,19.6,10.3,-9.6,93,89,82,30.54,30.20,10,2,13,0.01
2013-2-22,26.8,21.9,18.5,25.0,20.1,16.8,94,92,90,30.20,29.78,10,2,13,0.00
2013-2-23,29.9,23.8,18.2,28.5,22.4,16.5,96,94,92,29.88,29.75,9,1,10,0.00
2013-2-24,31.0,24.2,17.9,28.0,22.0,15.7,96,91,85,30.08,29.88,5,0,7,0.00
2013-2-25,36.6,28.2,18.8,27.6,24.1,17.1,95,85,67,30.11,30.04,8,1,10,0.05
2013-2-26,37.9,26.4,10.8,27.9,21.0,8.2,96,81,62,30.08,29.91,9,2,15,0.11
2013-2-27,30.1,28.7,27.0,27.5,25.1,23.6,92,86,79,29.96,29.83,12,4,16,0.00
2013-2-28,27.0,22.7,19.7,24.2,19.1,15.5,91,86,76,30.26,29.96,10,3,18,0.00